Amritsar, India

1:50 AM IST on June 29, 2017 (GMT +0530)
Amritsar

Weather History for VIAR - March, 2012

Change the Weather History Date:

Saturday, March 17, 2012

  Actual Average Record
Temperature  
Mean Temperature 69 °F -  
Max Temperature 85 °F 77 °F 93 °F (2004)
Min Temperature 53 °F 55 °F 47 °F (2015)
Cooling Degree Days 4    
Growing Degree Days 19 (Base 50)    
Moisture  
Dew Point 53 °F    
Average Humidity 61    
Maximum Humidity 94    
Minimum Humidity 22    
Precipitation  
Precipitation 0.00 in - - ()
Sea Level Pressure  
Sea Level Pressure 29.83 in    
Wind  
Wind Speed 1 mph ()    
Max Wind Speed 7 mph    
Max Gust Speed -    
Visibility 2.3 miles    
Events      
Averages and records for this station are not official NWS values.
T = Trace of Precipitation, MM = Missing Value Source: Averaged Metar Reports

Daily Weather History Graph

Daily Weather History Graph

Search for Another Location

Airport or City:

Trip Planner

Search our weather history database for the weather conditions in past years. The results will help you decide how hot, cold, wet, or windy it might be!

Date:

Astronomy

Mar. 17, 2012 Rise Set
Actual Time 6:38 AM IST 6:40 PM IST
Civil Twilight 6:13 AM IST 7:04 PM IST
Nautical Twilight 5:45 AM IST 7:32 PM IST
Astronomical Twilight 5:17 AM IST 8:01 PM IST
Moon 3:02 AM IST (3/17) 1:51 PM IST (3/17)
Length of Visible Light 12h 50m
Length of Day
12h 02m
Waning Crescent, 27% of the Moon is Illuminated
Mar 17
Waning Crescent
Mar 22
New
Mar 31
First Quarter
Apr 7
Full
Apr 13
Last Quarter

Hourly Weather History & Observations

Time (IST) Temp. Heat Index Dew Point Humidity Pressure Visibility Wind Dir Wind Speed Gust Speed Precip Events Conditions
12:00 AM 59.0 °F - 53.6 °F 82% 29.86 in 2.5 mi Calm Calm - N/A   Haze
12:30 AM 59.0 °F - 53.6 °F 82% 29.86 in 2.2 mi Calm Calm - N/A   Haze
1:00 AM 59.0 °F - 53.6 °F 82% 29.83 in 2.2 mi Calm Calm - N/A   Scattered Clouds
1:30 AM 59.0 °F - 51.8 °F 77% 29.83 in 2.2 mi Calm Calm - N/A   Partly Cloudy
2:00 AM 59.0 °F - 51.8 °F 77% 29.83 in 2.2 mi Calm Calm - N/A   Partly Cloudy
2:30 AM 60 °F - 52 °F 67% 29.81 in 1 mi Calm Calm - -   Mist
2:30 AM 59.0 °F - 51.8 °F 77% 29.80 in 2.2 mi Calm Calm - N/A   Partly Cloudy
3:30 AM 59.0 °F - 51.8 °F 77% 29.80 in 2.2 mi Calm Calm - N/A   Partly Cloudy
4:00 AM 57.2 °F - 51.8 °F 82% 29.80 in 2.2 mi NW 4.6 mph - N/A   Partly Cloudy
4:30 AM 57.2 °F - 51.8 °F 82% 29.80 in 2.2 mi Calm Calm - N/A   Partly Cloudy
5:00 AM 55.4 °F - 50.0 °F 82% 29.80 in 2.2 mi Calm Calm - N/A   Partly Cloudy
5:30 AM 55 °F - 51 °F 82% 29.81 in 1 mi Calm Calm - -   Mist
5:30 AM 57.2 °F - 51.8 °F 82% 29.80 in 2.2 mi NW 3.5 mph - N/A   Partly Cloudy
6:00 AM 53.6 °F - 50.0 °F 88% 29.83 in 2.2 mi Calm Calm - N/A   Partly Cloudy
6:30 AM 53.6 °F - 51.8 °F 94% 29.83 in 2.2 mi Variable 3.5 mph - N/A   Partly Cloudy
7:00 AM 53.6 °F - 51.8 °F 94% 29.83 in 1.4 mi Variable 1.2 mph - N/A   Mist
7:30 AM 55.4 °F - 51.8 °F 88% 29.83 in 1.4 mi Calm Calm - N/A   Mist
8:00 AM 59.0 °F - 53.6 °F 82% 29.86 in 1.4 mi Variable 2.3 mph - N/A   Mist
8:30 AM 64 °F - 56 °F 68% 29.85 in 1 mi Calm Calm - -   Mist
8:30 AM 62.6 °F - 53.6 °F 72% 29.86 in 1.4 mi Calm Calm - N/A   Mist
9:00 AM 66.2 °F - 55.4 °F 68% 29.86 in 1.6 mi Variable 2.3 mph - N/A   Haze
9:30 AM 69.8 °F - 57.2 °F 64% 29.89 in 1.7 mi West 4.6 mph - N/A   Haze
11:30 AM 77 °F - 53 °F 33% 29.86 in 2 mi East 4.6 mph - -   Smoke
11:30 AM 77.0 °F - 53.6 °F 44% 29.89 in 3.1 mi East 4.6 mph - N/A   Smoke
12:00 PM 80.6 °F 80.3 °F 53.6 °F 39% 29.89 in 3.1 mi Variable 3.5 mph - N/A   Smoke
12:30 PM 80.6 °F 80.8 °F 57.2 °F 45% 29.86 in 3.1 mi Variable 3.5 mph - N/A   Smoke
1:00 PM 80.6 °F 80.3 °F 53.6 °F 39% 29.86 in 3.7 mi Variable 3.5 mph - N/A   Unknown
1:30 PM 82.4 °F - 50.0 °F 32% 29.83 in 3.7 mi SE 4.6 mph - N/A   Unknown
2:00 PM 82.4 °F - 48.2 °F 30% 29.83 in 3.7 mi East 5.8 mph - N/A   Unknown
2:30 PM 83 °F - 56 °F 29% 29.78 in 2 mi NW 4.6 mph - -  
2:30 PM 82.4 °F 81.7 °F 55.4 °F 39% 29.83 in 3.7 mi NW 4.6 mph - N/A   Unknown
3:00 PM 84.2 °F - 50.0 °F 30% 29.80 in 3.7 mi NW 6.9 mph - N/A   Unknown
3:30 PM 82.4 °F - 48.2 °F 30% 29.80 in 3.7 mi WNW 5.8 mph - N/A   Unknown
4:00 PM 84.2 °F - 44.6 °F 25% 29.80 in 3.7 mi NW 5.8 mph - N/A   Unknown
4:30 PM 82.4 °F 81.4 °F 53.6 °F 37% 29.80 in 2.5 mi WNW 5.8 mph - N/A   Smoke
5:00 PM 82.4 °F - 46.4 °F 28% 29.77 in 2.5 mi Variable 4.6 mph - N/A   Smoke
5:30 PM 82 °F - 49 °F 22% 29.74 in 2 mi 4.6 mph - -   Smoke
5:30 PM 82.4 °F - 50.0 °F 32% 29.77 in 2.5 mi Variable 4.6 mph - N/A   Smoke
6:00 PM 80.6 °F - 51.8 °F 37% 29.77 in 2.5 mi Variable 1.2 mph - N/A   Smoke
6:30 PM 77.0 °F - 59.0 °F 54% 29.80 in 2.5 mi Calm Calm - N/A   Smoke
7:00 PM 73.4 °F - 51.8 °F 47% 29.80 in 2.5 mi West 3.5 mph - N/A   Smoke
7:30 PM 71.6 °F - 57.2 °F 60% 29.80 in 2.5 mi Variable 1.2 mph - N/A   Smoke
8:00 PM 71.6 °F - 57.2 °F 60% 29.83 in 2.5 mi Calm Calm - N/A   Smoke
8:30 PM 71 °F - 57 °F 53% 29.81 in 2 mi Calm Calm - -   Smoke
8:30 PM 71.6 °F - 57.2 °F 60% 29.83 in 2.5 mi Calm Calm - N/A   Smoke
9:00 PM 69.8 °F - 57.2 °F 64% 29.83 in 2.5 mi Calm Calm - N/A   Smoke
9:30 PM 64.4 °F - 57.2 °F 77% 29.83 in 2.5 mi Calm Calm - N/A   Smoke
10:00 PM 66.2 °F - 57.2 °F 73% 29.83 in 2.5 mi Calm Calm - N/A   Smoke
10:30 PM 66.2 °F - 57.2 °F 73% 29.86 in 2.5 mi Calm Calm - N/A   Smoke
11:00 PM 62.6 °F - 57.2 °F 82% 29.86 in - Calm Calm - N/A   Haze
11:30 PM 63 °F - 56 °F 72% 29.85 in 1 mi Calm Calm - -   Haze
11:30 PM 62.6 °F - 55.4 °F 77% 29.86 in - Calm Calm - N/A   Haze